This demonstration page uses our WeatherBlox Daily Observations layout. Learn more.

Left ArrowRight Arrow

39.95238, -75.16362

Hourly Observations for November 19, 2019

Temp ( °F °C ) Dew Point ( °F °C ) Humidity (%) Winds ( mph kmh ) Pressure ( in mb ) Visibility ( mi km ) Precip ( " mm )
12:54 am 00:54 Cloudy 42 5.6 37 2.8 82 82 WSW 5 7 29.75 1007 10 16 0.00 0.00
1:54 am 01:54 Cloudy 42 5.6 37 2.8 82 82 WSW 6 9 29.75 1008 10 16 0.00 0.00
2:43 am 02:43 Cloudy 42 5.6 37 2.8 82 82 WSW 5 7 29.75 1008 10 16 0.00 0.00
2:54 am 02:54 Cloudy 42 5.6 37 2.8 82 82 WSW 6 9 29.75 1007 10 16 0.00 0.00
3:12 am 03:12 Cloudy 41 5 37 2.8 86 86 W 6 9 29.74 1007 8 13 0.00 0.00
3:29 am 03:29 Cloudy 42 5.6 37 2.8 82 82 W 6 9 29.75 1008 7 11 0.00 0.00
3:54 am 03:54 Cloudy 42 5.6 36 2.2 79 79 WNW 3 6 29.74 1007 7 11 0.00 0.00
4:32 am 04:32 Cloudy 42 5.6 35 1.7 76 76 W 5 7 29.75 1008 10 16 0.00 0.00
4:54 am 04:54 Cloudy 42 5.6 35 1.7 76 76 WSW 5 7 29.76 1008 10 16 0.00 0.00
5:16 am 05:16 Cloudy 41 5 35 1.7 79 79 W 6 9 29.76 1008 7 11 0.00 0.00
5:54 am 05:54 Mostly Cloudy 41 5 35 1.7 79 79 WSW 5 7 29.78 1008 8 13 0.00 0.00
6:54 am 06:54 Mostly Sunny 40 4.4 35 1.7 83 83 WSW 6 9 29.79 1009 8 13 0.00 0.00
7:54 am 07:54 Mostly Sunny 41 5 37 2.8 86 86 SW 9 15 29.82 1010 7 11 0.00 0.00
8:24 am 08:24 Mostly Cloudy 42 5.6 37 2.8 82 82 WSW 12 19 29.83 1010 7 11 0.00 0.00
8:54 am 08:54 Cloudy 43 6.1 36 2.2 76 76 W 9 15 29.83 1010 7 11 0.00 0.00
9:54 am 09:54 Mostly Cloudy 43 6.1 35 1.7 74 74 WNW 7 11 29.83 1010 7 11 0.00 0.00
10:54 am 10:54 Mostly Cloudy 44 6.7 36 2.2 73 73 SW 7 11 29.83 1010 8 13 0.00 0.00
11:19 am 11:19 Partly Cloudy 44 6.7 36 2.2 73 73 WNW 3 6 29.82 1010 8 13 0.00 0.00
11:54 am 11:54 Partly Cloudy 46 7.8 36 2.2 68 68 SSW 8 13 29.81 1010 8 13 0.00 0.00
12:54 pm 12:54 Partly Cloudy 48 8.9 36 2.2 63 63 VRB 5 7 29.80 1009 8 13 0.00 0.00
1:54 pm 13:54 Mostly Cloudy 51 10.6 36 2.2 56 56 VRB 5 7 29.79 1009 8 13 0.00 0.00
2:54 pm 14:54 Mostly Cloudy 51 10.6 35 1.7 54 54 W 3 6 29.80 1009 8 13 0.00 0.00
3:54 pm 15:54 Mostly Cloudy 51 10.6 36 2.2 56 56 NE 3 6 29.81 1009 8 13 0.00 0.00
4:54 pm 16:54 Mostly Cloudy 49 9.4 34 1.1 56 56 NNE 5 7 29.82 1010 9 14 0.00 0.00
5:54 pm 17:54 Mostly Cloudy 46 7.8 36 2.2 68 68 Calm 29.85 1011 9 14 0.00 0.00
6:54 pm 18:54 Mostly Cloudy 49 9.4 34 1.1 56 56 Calm 29.86 1011 9 14 0.00 0.00
7:54 pm 19:54 Cloudy 47 8.3 33 0.6 59 59 N 12 19 29.88 1012 9 14 0.00 0.00
8:54 pm 20:54 Cloudy 45 7.2 32 0 61 61 NNE 6 9 29.89 1012 10 16 0.00 0.00
9:54 pm 21:54 Cloudy 45 7.2 32 0 61 61 NNE 3 6 29.89 1012 10 16 0.00 0.00
10:54 pm 22:54 Cloudy 46 7.8 32 0 58 58 Calm 29.88 1012 10 16 0.00 0.00
11:54 pm 23:54 Cloudy 46 7.8 31 -0.6 56 56 Calm 29.88 1012 10 16 0.00 0.00

Powered by AerisWeather